Regional Weather Roundup
Issued by NWS

Home | Current Version | Previous Version | Text Only | Print | Product List | Glossary On
Versions: 1 2 3 4 5 6 7 8 9 10 11 12 13 14 15 16 17 18 19 20 21 22 23 24 25 26 27 28 29 30 31 32 33 34 35 36 37 38 39 40 41 42 43 44 45 46 47 48 49 50
000
ASUS43 KOAX 052310
RWRNE

WEATHER ROUNDUP FOR NEBRASKA
NATIONAL WEATHER SERVICE OMAHA NE
600 PM CDT SUN JUL 05 2015

NOTES: SATELLITE DATA IS BEING USED TO AUGMENT CLOUD COVER ABOVE
       12000 FEET.
       "FAIR" INDICATES FEW OR NO CLOUDS BELOW 12,000 FEET WITH NO
       SIGNIFICANT WEATHER AND/OR OBSTRUCTIONS TO VISIBILITY.

  * THESE STATIONS DO NOT REPORT WEATHER SUCH AS RAIN...SNOW OR FOG.

NEZ001>004-019>022-054>056-060000-
NEBRASKA PANHANDLE

CITY           SKY/WX    TMP DP  RH WIND       PRES   REMARKS
SCOTTSBLUFF    TSTM      64  60  87 N12G28    29.97R FOG
ALLIANCE       CLOUDY    82  65  56 N13       29.83F
CHADRON        PTSUNNY   77  65  66 N17G29    29.87R
KIMBALL          N/A    N/A N/A N/A MISG        N/A
SIDNEY         CLOUDY    83  58  42 NW18G25   29.87R
$$

NEZ057>060-069>072-079>082-060000-
SOUTHWEST NEBRASKA

CITY           SKY/WX    TMP DP  RH WIND       PRES   REMARKS
NORTH PLATTE   PTSUNNY   95  67  39 E9        29.73F HX  99
IMPERIAL       PTSUNNY  101  51  18 S9        29.74F HX  98
LEXINGTON      PTSUNNY   98  65  34 SE9       29.72F HX 100
MCCOOK         PTSUNNY   93  57  29 SE16G30   29.70F HX  91
OGALLALA       CLOUDY    94  62  34 SE8       29.74F HX  94
$$

NEZ005>010-023>029-035>040-094-060000-
NORTH CENTRAL NEBRASKA

CITY           SKY/WX    TMP DP  RH WIND       PRES   REMARKS
VALENTINE      PTSUNNY   92  66  42 S9        29.75S HX  94
AINSWORTH      MOSUNNY   90  68  48 S9        29.77R HX  94
BROKEN BOW     MOSUNNY   95  69  42 S15G23    29.74F HX 100
O`NEILL        PTSUNNY   91  73  55 SE12      29.78S HX  99
ORD            SUNNY     94  70  45 SE12      29.73F HX 100
THEDFORD       MOSUNNY   92  71  49 S10       29.78S HX  98
$$

NEZ041-046>049-061>064-073>077-083>087-060000-
SOUTH CENTRAL NEBRASKA

CITY           SKY/WX    TMP DP  RH WIND       PRES   REMARKS
GRAND ISLAND   SUNNY     96  70  42 S14       29.75F HX 102
AURORA         SUNNY     93  73  51 SE14      29.76S HX 102
HASTINGS       SUNNY     96  68  39 S15G24    29.74F HX 101
HEBRON         SUNNY     95  63  34 S13G22    29.77F HX  96
HOLDREGE       MOSUNNY   95  63  33 S9        29.73F HX  96
KEARNEY *      SUNNY     97  70  41 S8        29.73S HX 103
YORK           SUNNY     91  73  55 S16       29.77S HX 100
$$

NEZ011>018-030>034-042>045-060000-
NORTHEAST NEBRASKA

CITY           SKY/WX    TMP DP  RH WIND       PRES   REMARKS
NORFOLK        SUNNY     89  76  65 SE13      29.78S HX 100
ALBION         MOSUNNY   89  73  59 SE13G20   29.77S HX  97
BLAIR          MOSUNNY   88  73  60 SE16G23   29.82S HX  95
COLUMBUS *     SUNNY     90  75  62 SE13      29.79F HX 100
FREMONT        MOSUNNY   91  73  55 SE15G24   29.79F HX  99
TEKAMAH        MOSUNNY   91  74  57 SE18G25   29.79F HX 100
WAYNE          CLOUDY    85  77  76 SE12G17   29.80S HX  96
$$

NEZ050>053-065>068-078-088>093-060000-
SOUTHEAST NEBRASKA

CITY           SKY/WX    TMP DP  RH WIND       PRES   REMARKS
LINCOLN        MOSUNNY   91  74  57 S18       29.79F HX 100
OMAHA EPPLEY   PTSUNNY   90  74  59 S22       29.81S HX  99
BEATRICE       SUNNY     92  74  56 S17G29    29.80F HX 101
FALLS CITY     MOSUNNY   91  70  49 S17       29.84F HX  96
NEBRASKA CITY  SUNNY     90  65  44 S17       29.84S HX  91
PLATTSMOUTH    SUNNY     89  72  58 SE15      29.84S HX  95
$$

NEZ044-045-051>053-067-060000-
OMAHA AREA

CITY           SKY/WX    TMP DP  RH WIND       PRES   REMARKS
OMAHA EPPLEY   PTSUNNY   90  74  59 S22       29.81S HX  99
BLAIR          MOSUNNY   88  73  60 SE16G23   29.82S HX  95
FREMONT        MOSUNNY   91  73  55 SE15G24   29.79F HX  99
MILLARD        SUNNY     90  76  64 SE14      29.81F HX 102
OFFUTT AFB     SUNNY     90  75  61 S16       29.81S HX 100
PLATTSMOUTH    SUNNY     89  72  58 SE15      29.84S HX  95
WAHOO          FAIR      91  75  58 SE20      29.79F HX 101
$$


USA.gov is the U.S. government's official web portal to all federal, state and local government web resources and services.